Weather History for K20V - May, 2013

Change the Weather History Date:

Thursday, May 16, 2013

  Actual Average (KEGE) Record (KEGE)
Temperature  
Mean Temperature 54 °F -  
Max Temperature 71 °F 69 °F 84 °F (1988)
Min Temperature 37 °F 35 °F 20 °F (1955)
Degree Days  
Heating Degree Days 11    
Growing Degree Days 4 (Base 50)    
Moisture  
Dew Point 37 °F    
Average Humidity 56    
Maximum Humidity 93    
Minimum Humidity 18    
Precipitation  
Precipitation 0.00 in - - ()
Sea Level Pressure  
Sea Level Pressure 30.07 in    
Wind  
Wind Speed 4 mph (East)    
Max Wind Speed 20 mph    
Max Gust Speed 30 mph    
Visibility 10 miles    
Events Rain    
Averages and records for this station are not official NWS values.
T = Trace of Precipitation, MM = Missing Value Source: NWS Daily Summary

Daily Weather History Graph

Daily Weather History Graph

Search for Another Location

Airport or City:

Trip Planner

Search our weather history database for the weather conditions in past years. The results will help you decide how hot, cold, wet, or windy it might be!

Date:

Astronomy

May. 16, 2013 Rise Set
Actual Time 5:48 AM MDT 8:15 PM MDT
Civil Twilight 5:18 AM MDT 8:46 PM MDT
Nautical Twilight 4:39 AM MDT 9:24 PM MDT
Astronomical Twilight 3:57 AM MDT 10:07 PM MDT
Moon 11:24 AM MDT (5/16) 12:37 AM MDT (5/16)
Length of Visible Light 15h 28m
Length of Day
14h 26m
Waxing Crescent, 36% of the Moon is Illuminated
May 16
Waxing Crescent
May 17
First Quarter
May 24
Full
May 31
Last Quarter
Jun 8
New

Hourly Weather History & Observations

Time (MDT) Temp. Windchill Dew Point Humidity Pressure Visibility Wind Dir Wind Speed Gust Speed Precip Events Conditions
12:15 AM 50.0 °F - 41.0 °F 71% 30.14 in 10.0 mi South 6.9 mph - N/A   Scattered Clouds
12:35 AM 50.0 °F - 41.0 °F 71% 30.14 in 10.0 mi SW 3.5 mph - N/A   Clear
12:55 AM 46.4 °F - 41.0 °F 81% 30.14 in 10.0 mi Calm Calm - N/A   Clear
1:15 AM 46.4 °F 42.9 °F 39.2 °F 76% 30.14 in 10.0 mi SW 6.9 mph - N/A   Clear
1:35 AM 48.2 °F - 41.0 °F 76% 30.15 in 10.0 mi West 4.6 mph - N/A   Mostly Cloudy
1:56 AM 46.4 °F 45.2 °F 39.2 °F 76% 30.12 in 10.0 mi East 3.5 mph - N/A   Mostly Cloudy
2:16 AM 46.4 °F 41.5 °F 41.0 °F 81% 30.11 in 10.0 mi East 10.4 mph 17.3 mph N/A   Mostly Cloudy
2:35 AM 46.4 °F 43.5 °F 41.0 °F 81% 30.11 in 10.0 mi East 5.8 mph - N/A   Overcast
2:56 AM 46.4 °F 42.9 °F 41.0 °F 81% 30.11 in 10.0 mi ESE 6.9 mph - N/A   Overcast
3:15 AM 46.4 °F - 41.0 °F 81% 30.10 in 10.0 mi Calm Calm - N/A   Overcast
3:36 AM 46.4 °F - 41.0 °F 81% 30.10 in 10.0 mi Calm Calm - N/A   Overcast
3:55 AM 46.4 °F - 41.0 °F 81% 30.09 in 10.0 mi Calm Calm - N/A   Overcast
4:16 AM 44.6 °F - 39.2 °F 81% 30.09 in 10.0 mi Calm Calm - N/A   Scattered Clouds
4:35 AM 42.8 °F 40.1 °F 37.4 °F 81% 30.09 in 10.0 mi South 4.6 mph - N/A   Scattered Clouds
4:56 AM 42.8 °F - 37.4 °F 81% 30.08 in 10.0 mi Calm Calm - N/A   Clear
5:16 AM 41.0 °F - 37.4 °F 87% 30.09 in 10.0 mi Calm Calm - N/A   Clear
5:36 AM 41.0 °F - 35.6 °F 81% 30.09 in 10.0 mi Calm Calm - N/A   Clear
5:56 AM 37.4 °F - 35.6 °F 93% 30.09 in 10.0 mi Calm Calm - N/A   Clear
6:16 AM 39.2 °F - 35.6 °F 87% 30.10 in 10.0 mi Calm Calm - N/A   Clear
6:36 AM 41.0 °F - 37.4 °F 87% 30.11 in 10.0 mi Calm Calm - N/A   Clear
6:55 AM 42.8 °F - 37.4 °F 81% 30.11 in 10.0 mi Calm Calm - N/A   Clear
7:16 AM 44.6 °F - 39.2 °F 81% 30.12 in 10.0 mi Calm Calm - N/A   Clear
7:35 AM 46.4 °F 44.3 °F 39.2 °F 76% 30.12 in 10.0 mi East 4.6 mph - N/A   Clear
7:55 AM 50.0 °F - 41.0 °F 71% 30.12 in 10.0 mi Calm Calm - N/A   Clear
8:16 AM 50.0 °F - 39.2 °F 66% 30.12 in 10.0 mi Calm Calm - N/A   Clear
8:36 AM 50.0 °F - 39.2 °F 66% 30.12 in 10.0 mi Calm Calm - N/A   Clear
8:55 AM 51.8 °F - 39.2 °F 62% 30.11 in 10.0 mi Calm Calm - N/A   Clear
9:16 AM 53.6 °F - 42.8 °F 67% 30.11 in 10.0 mi Calm Calm - N/A   Clear
9:34 AM 53.6 °F - 41.0 °F 62% 30.10 in 10.0 mi East 5.8 mph - N/A   Clear
9:56 AM 55.4 °F - 41.0 °F 58% 30.10 in 10.0 mi NNE 4.6 mph - N/A   Clear
10:15 AM 55.4 °F - 41.0 °F 58% 30.09 in 10.0 mi Calm Calm - N/A   Clear
10:35 AM 59.0 °F - 41.0 °F 51% 30.09 in 10.0 mi Calm Calm - N/A   Clear
10:55 AM 60.8 °F - 41.0 °F 48% 30.08 in 10.0 mi SE 4.6 mph - N/A   Clear
11:15 AM 60.8 °F - 37.4 °F 42% 30.07 in 10.0 mi Calm Calm - N/A   Clear
11:35 AM 62.6 °F - 41.0 °F 45% 30.07 in 10.0 mi WSW 4.6 mph - N/A   Clear
11:56 AM 66.2 °F - 37.4 °F 35% 30.06 in 10.0 mi SW 3.5 mph - N/A   Scattered Clouds
12:16 PM 69.8 °F - 35.6 °F 28% 30.05 in 10.0 mi SSW 10.4 mph 18.4 mph N/A   Scattered Clouds
12:36 PM 71.6 °F - 33.8 °F 25% 30.04 in 10.0 mi WSW 18.4 mph 25.3 mph N/A   Scattered Clouds
1:16 PM 69.8 °F - 28.4 °F 21% 30.04 in 10.0 mi WNW 10.4 mph 29.9 mph N/A   Scattered Clouds
1:34 PM 62.6 °F - 32.0 °F 32% 30.03 in 10.0 mi North 11.5 mph - N/A Rain Light Rain
1:56 PM 60.8 °F - 32.0 °F 34% 30.04 in 10.0 mi North 8.1 mph 18.4 mph N/A   Overcast
2:15 PM 66.2 °F - 32.0 °F 28% 30.03 in 10.0 mi Calm Calm - N/A   Mostly Cloudy
2:36 PM 69.8 °F - 24.8 °F 18% 30.01 in 10.0 mi Calm Calm - N/A   Scattered Clouds
2:56 PM 71.6 °F - 32.0 °F 23% 30.01 in 10.0 mi NE 4.6 mph - N/A   Mostly Cloudy
3:14 PM 64.4 °F - 32.0 °F 30% 30.02 in 10.0 mi NE 11.5 mph 17.3 mph N/A   Mostly Cloudy
3:34 PM 68.0 °F - 32.0 °F 26% 30.02 in 10.0 mi North 11.5 mph 16.1 mph N/A   Mostly Cloudy
4:16 PM 69.8 °F - 30.2 °F 23% 30.00 in 10.0 mi North 10.4 mph 17.3 mph N/A   Scattered Clouds
4:36 PM 64.4 °F - 32.0 °F 30% 30.00 in 10.0 mi North 19.6 mph 28.8 mph N/A   Mostly Cloudy
4:56 PM 62.6 °F - 32.0 °F 32% 30.02 in 10.0 mi North 8.1 mph 18.4 mph N/A   Overcast
5:16 PM 62.6 °F - 32.0 °F 32% 30.02 in 10.0 mi NNW 4.6 mph - N/A   Overcast
5:36 PM 62.6 °F - 33.8 °F 34% 30.03 in 10.0 mi West 15.0 mph 24.2 mph N/A   Overcast
5:55 PM 68.0 °F - 32.0 °F 26% 30.03 in 10.0 mi WNW 10.4 mph 19.6 mph N/A   Mostly Cloudy
6:15 PM 64.4 °F - 32.0 °F 30% 30.02 in 10.0 mi WSW 4.6 mph - N/A   Mostly Cloudy
6:35 PM 62.6 °F - 32.0 °F 32% 30.02 in 10.0 mi Calm Calm - N/A   Mostly Cloudy
6:55 PM 64.4 °F - 32.0 °F 30% 30.02 in 10.0 mi ESE 5.8 mph - N/A   Mostly Cloudy
7:16 PM 60.8 °F - 37.4 °F 42% 30.01 in 10.0 mi ESE 6.9 mph - N/A   Mostly Cloudy
7:35 PM 60.8 °F - 35.6 °F 39% 30.01 in 10.0 mi ESE 5.8 mph - N/A   Scattered Clouds
7:56 PM 59.0 °F - 35.6 °F 42% 30.01 in 10.0 mi ESE 9.2 mph - N/A   Clear
8:16 PM 55.4 °F - 35.6 °F 47% 30.02 in 10.0 mi East 10.4 mph - N/A   Clear
8:36 PM 55.4 °F - 35.6 °F 47% 30.02 in 10.0 mi East 9.2 mph - N/A   Clear
8:56 PM 53.6 °F - 35.6 °F 51% 30.03 in 10.0 mi ESE 5.8 mph - N/A   Scattered Clouds
9:16 PM 53.6 °F - 37.4 °F 54% 30.04 in 10.0 mi ESE 5.8 mph - N/A   Scattered Clouds
9:36 PM 53.6 °F - 37.4 °F 54% 30.04 in 10.0 mi ESE 6.9 mph - N/A   Scattered Clouds
9:56 PM 51.8 °F - 37.4 °F 58% 30.06 in 10.0 mi ESE 6.9 mph - N/A   Clear
10:16 PM 51.8 °F - 35.6 °F 54% 30.06 in 10.0 mi ESE 8.1 mph - N/A   Scattered Clouds
10:36 PM 51.8 °F - 35.6 °F 54% 30.06 in 10.0 mi Calm Calm - N/A   Scattered Clouds
10:56 PM 50.0 °F - 35.6 °F 58% 30.05 in 10.0 mi Calm Calm - N/A   Scattered Clouds
11:15 PM 50.0 °F - 37.4 °F 62% 30.05 in 10.0 mi Calm Calm - N/A   Clear
11:36 PM 50.0 °F - 37.4 °F 62% 30.04 in 10.0 mi Calm Calm - N/A   Clear
11:55 PM 50.0 °F - 37.4 °F 62% 30.05 in 10.0 mi Calm Calm - N/A   Clear